This demonstration page uses our WeatherBlox Daily Observations layout. Learn more.

Left ArrowRight Arrow

38.88101, -77.10428

Hourly Observations for January 23, 2022

Temp ( °F °C ) Dew Point ( °F °C ) Humidity (%) Winds ( mph kmh ) Pressure ( in mb ) Visibility ( mi km ) Precip ( " mm )
12:52 am 00:52 Cloudy 27 -2.8 8 -13.3 45 45 SSW 8 13 30.12 1020 10 16 0.00 0.00
1:52 am 01:52 Cloudy 26 -3.3 9 -12.8 48 48 W 3 6 30.11 1020 10 16 0.00 0.00
2:52 am 02:52 Cloudy 27 -2.8 8 -13.3 45 45 Calm 30.10 1019 10 16 0.00 0.00
3:52 am 03:52 Cloudy 26 -3.3 11 -11.7 53 53 SSW 5 7 30.07 1018 10 16 0.00 0.00
4:52 am 04:52 Cloudy 27 -2.8 10 -12.2 49 49 SSW 3 6 30.06 1018 10 16 0.00 0.00
5:52 am 05:52 Cloudy 26 -3.3 11 -11.7 53 53 SW 3 6 30.05 1018 10 16 0.00 0.00
6:52 am 06:52 Mostly Cloudy 25 -3.9 13 -10.6 60 60 SW 5 7 30.05 1018 10 16 0.00 0.00
7:52 am 07:52 Mostly Cloudy 26 -3.3 12 -11.1 55 55 S 6 9 30.03 1017 10 16 0.00 0.00
8:52 am 08:52 Mostly Cloudy 28 -2.2 17 -8.3 63 63 S 9 15 30.02 1017 10 16 0.00 0.00
9:52 am 09:52 Mostly Cloudy 31 -0.6 18 -7.8 59 59 S 8 13 30.00 1016 10 16 0.00 0.00
10:52 am 10:52 Partly Cloudy 34 1.1 16 -8.9 48 48 SSE 8 13 29.98 1015 10 16 0.00 0.00
11:52 am 11:52 Mostly Cloudy 36 2.2 13 -10.6 39 39 S 7 11 29.93 1014 10 16 0.00 0.00
12:52 pm 12:52 Mostly Cloudy 38 3.3 15 -9.4 39 39 S 9 15 29.88 1012 10 16 0.00 0.00
1:52 pm 13:52 Mostly Cloudy 39 3.9 14 -10 36 36 S 10 17 29.85 1011 10 16 0.00 0.00
2:52 pm 14:52 Mostly Cloudy 38 3.3 17 -8.3 43 43 S 9 15 29.82 1010 10 16 0.00 0.00
3:52 pm 15:52 Mostly Cloudy 37 2.8 20 -6.7 50 50 S 9 15 29.82 1010 9 14 0.00 0.00
4:52 pm 16:52 Cloudy 37 2.8 20 -6.7 50 50 S 7 11 29.80 1009 10 16 0.00 0.00
5:52 pm 17:52 Mostly Cloudy 36 2.2 18 -7.8 48 48 S 7 11 29.79 1009 10 16 0.00 0.00
6:52 pm 18:52 Mostly Cloudy 36 2.2 20 -6.7 52 52 SSW 5 7 29.80 1009 10 16 0.00 0.00
7:52 pm 19:52 Cloudy 36 2.2 19 -7.2 50 50 S 3 6 29.80 1009 10 16 0.00 0.00
8:52 pm 20:52 Cloudy 36 2.2 21 -6.1 55 55 Calm 29.81 1009 10 16 0.00 0.00
9:52 pm 21:52 Cloudy 35 1.7 21 -6.1 57 57 Calm 29.81 1009 10 16 0.00 0.00
10:52 pm 22:52 Cloudy 35 1.7 23 -5 61 61 Calm 29.82 1010 10 16 0.00 0.00
11:52 pm 23:52 Cloudy 35 1.7 20 -6.7 54 54 NNW 6 9 29.83 1010 10 16 0.00 0.00

Powered by AerisWeather